"Timestamp","TZ","WindDir_Mean (deg)","WindSpd_Mean (km/h)","WindSpd_Min (km/h)","WindSpd_Max (km/h)","Temp_Mean (deg)","RH_Mean (%)","MSLP_Mean (hPa)","Rain_Acc (mm)","Rain_Intensity (mm/h)","Hail_Acc (hits/cm2)","Hail_Intensity (hits/cm2hr)","Solar_Mean (W/m2)"
2018/04/22 00:00:00.015,n,255,5.76,5.04,6.12,18.5,81.1,1018.92,0,0,0,0,0.030479
2018/04/22 00:01:00.000,n,261,6.84,6.12,7.56,18.5,81,1018.82,0,0,0,0,0.033073
2018/04/22 00:02:00.000,n,263,5.4,4.32,6.12,18.5,81,1018.82,0,0,0,0,0.031357
2018/04/22 00:03:00.000,n,253,4.68,3.6,5.76,18.5,81,1018.92,0,0,0,0,0.023499
2018/04/22 00:04:00.003,n,263,5.76,5.04,6.48,18.5,81.1,1018.92,0,0,0,0,0.026131
2018/04/22 00:05:00.000,n,286,6.12,4.32,7.2,18.5,81.3,1018.82,0,0,0,0,0.026131
2018/04/22 00:06:00.000,n,267,6.12,5.76,6.12,18.5,80.8,1018.82,0,0,0,0,0.024376
2018/04/22 00:07:00.011,n,255,3.6,2.88,5.4,18.5,80.7,1018.82,0,0,0,0,0.024376
2018/04/22 00:08:00.008,n,265,6.84,6.12,7.92,18.5,80.7,1018.92,0,0,0,0,0.026131
2018/04/22 00:09:00.005,n,254,6.84,4.32,9.36,18.4,80.7,1018.92,0,0,0,0,0.021782
2018/04/22 00:10:00.000,n,276,7.92,7.2,8.28,18.4,80.5,1018.92,0,0,0,0,0.027008
2018/04/22 00:11:00.000,n,253,5.4,4.32,6.84,18.4,80.5,1018.92,0,0,0,0,0.025253
2018/04/22 00:12:00.000,n,266,7.2,6.48,8.28,18.4,80.4,1018.92,0,0,0,0,0.025253
2018/04/22 00:13:00.000,n,220,3.96,3.24,4.68,18.4,80.5,1018.92,0,0,0,0,0.024376
2018/04/22 00:14:00.006,n,237,3.6,3.24,3.96,18.4,80.5,1018.92,0,0,0,0,0.025253
2018/04/22 00:15:00.004,n,249,5.76,5.4,6.12,18.4,80.7,1018.92,0,0,0,0,0.024376
2018/04/22 00:16:00.001,n,267,7.56,5.76,10.08,18.4,80.9,1018.82,0,0,0,0,0.026131
2018/04/22 00:17:00.014,n,256,6.12,5.04,7.56,18.5,80.8,1018.82,0,0,0,0,0.022621
2018/04/22 00:18:00.011,n,240,4.68,3.6,5.4,18.5,80.4,1018.82,0,0,0,0,0.029602
2018/04/22 00:19:00.000,n,244,3.6,3.24,3.96,18.4,80.3,1018.82,0,0,0,0,0.031357
2018/04/22 00:20:00.000,n,259,6.48,5.76,6.84,18.4,80.4,1018.82,0,0,0,0,0.027847
2018/04/22 00:21:00.000,n,242,3.24,2.16,4.32,18.4,80.3,1018.92,0,0,0,0,0.020027
2018/04/22 00:22:00.000,n,269,5.76,4.68,6.84,18.4,80.5,1018.92,0,0,0,0,0.023499
2018/04/22 00:23:00.005,n,261,4.68,3.6,6.48,18.4,80.3,1018.82,0,0,0,0,0.023499
2018/04/22 00:24:00.002,n,256,4.32,3.24,5.04,18.4,80.2,1018.82,0,0,0,0,0.021782
2018/04/22 00:25:00.000,n,215,2.16,1.44,3.24,18.4,80.2,1018.82,0,0,0,0,0.022621
2018/04/22 00:26:00.012,n,239,5.4,5.04,5.76,18.3,80.2,1018.82,0,0,0,0,0.024376
2018/04/22 00:27:00.009,n,246,6.12,5.76,6.84,18.3,80.3,1018.82,0,0,0,0,0.025253
2018/04/22 00:28:00.000,n,244,5.04,3.6,6.12,18.3,80.4,1018.82,0,0,0,0,0.024376
2018/04/22 00:29:00.003,n,247,4.32,3.96,5.04,18.3,80.4,1018.82,0,0,0,0,0.021782
2018/04/22 00:30:00.000,n,227,2.88,1.44,4.68,18.3,80.3,1018.92,0,0,0,0,0.024376
2018/04/22 00:31:00.000,n,255,7.2,5.76,8.28,18.3,80.5,1018.82,0,0,0,0,0.024376
2018/04/22 00:32:00.000,n,254,3.6,2.88,4.32,18.3,80.3,1018.82,0,0,0,0,0.024376
2018/04/22 00:33:00.007,n,264,7.56,4.32,9,18.3,80.3,1018.82,0,0,0,0,0.021782
2018/04/22 00:34:00.005,n,255,6.12,5.76,6.84,18.3,80,1018.82,0,0,0,0,0.021782
2018/04/22 00:35:00.001,n,259,5.76,5.04,6.12,18.3,79.9,1018.82,0,0,0,0,0.022621
2018/04/22 00:36:00.015,n,274,3.96,3.24,4.32,18.3,80,1018.82,0,0,0,0,0.022621
2018/04/22 00:37:00.000,n,263,3.6,2.52,4.68,18.3,80,1018.82,0,0,0,0,0.030479
2018/04/22 00:38:00.000,n,249,3.6,3.24,4.32,18.3,79.9,1018.82,0,0,0,0,0.022621
2018/04/22 00:39:00.000,n,261,5.04,4.32,5.4,18.3,79.8,1018.82,0,0,0,0,0.020027
2018/04/22 00:40:00.002,n,274,5.76,5.04,6.12,18.3,79.8,1018.82,0,0,0,0,0.024376
2018/04/22 00:41:00.000,n,254,6.12,4.68,7.56,18.3,79.7,1018.82,0,0,0,0,0.020905
2018/04/22 00:42:00.000,n,260,7.56,6.12,8.28,18.3,79.5,1018.82,0,0,0,0,0.031357
2018/04/22 00:43:00.006,n,251,6.12,4.68,6.84,18.3,79.6,1018.82,0,0,0,0,0.031357
2018/04/22 00:44:00.003,n,206,2.16,1.08,4.68,18.3,79.5,1018.82,0,0,0,0,0.043526
2018/04/22 00:45:00.000,n,238,6.12,5.76,6.48,18.3,79.1,1018.82,0,0,0,0,0.031357
2018/04/22 00:46:00.000,n,257,4.32,3.24,5.04,18.3,79.3,1018.82,0,0,0,0,0.033951
2018/04/22 00:47:00.000,n,263,5.76,4.68,6.12,18.3,79.1,1018.82,0,0,0,0,0.031357
2018/04/22 00:48:00.000,n,265,5.76,5.4,6.12,18.3,79,1018.82,0,0,0,0,0.032196
2018/04/22 00:50:00.000,n,255,3.24,2.52,4.32,18.2,78.8,1018.82,0,0,0,0,0.02697
2018/04/22 00:51:00.004,n,247,3.24,2.88,3.6,18.2,78.9,1018.72,0,0,0,0,0.02697
2018/04/22 00:52:00.000,n,273,4.32,3.96,4.68,18.2,78.7,1018.72,0,0,0,0,0.033951
2018/04/22 00:53:00.014,n,256,2.88,2.52,3.6,18.2,78.6,1018.72,0,0,0,0,0.027847
2018/04/22 00:54:00.011,n,255,3.6,3.24,4.32,18.2,78.6,1018.72,0,0,0,0,0.029564
2018/04/22 00:55:00.000,n,258,5.04,4.68,5.4,18.2,78.7,1018.72,0,0,0,0,0.032196
2018/04/22 00:56:00.000,n,242,5.4,5.04,5.76,18.2,78.8,1018.72,0,0,0,0,0.033951
2018/04/22 00:57:00.003,n,230,4.32,3.24,4.68,18.2,78.7,1018.62,0,0,0,0,0.031357
2018/04/22 00:58:00.000,n,193,2.16,1.8,3.24,18.2,78.5,1018.62,0,0,0,0,0.033951
2018/04/22 00:59:00.000,n,191,1.08,0.72,1.08,18.2,78.5,1018.62,0,0,0,0,0.02697
2018/04/22 01:00:00.010,n,250,4.32,3.6,4.68,18.2,78.8,1018.62,0,0,0,0,0.02697
2018/04/22 01:01:00.008,n,274,2.16,1.44,2.88,18.2,78.8,1018.62,0,0,0,0,0.022621
2018/04/22 01:02:00.005,n,278,2.52,1.8,3.6,18.2,78.8,1018.62,0,0,0,0,0.02697
2018/04/22 01:03:00.002,n,279,5.04,4.32,6.12,18.2,78.9,1018.62,0,0,0,0,0.025253
2018/04/22 01:04:00.000,n,262,5.4,4.68,5.76,18.3,78.7,1018.62,0,0,0,0,0.028725
2018/04/22 01:05:00.000,n,278,3.24,2.88,3.6,18.3,78.7,1018.62,0,0,0,0,0.026131
2018/04/22 01:06:00.000,n,217,0.36,0,0.72,18.3,78.6,1018.62,0,0,0,0,0.030479
2018/04/22 01:07:00.006,n,233,2.16,1.08,2.88,18.2,78.7,1018.62,0,0,0,0,0.022621
2018/04/22 01:08:00.003,n,251,3.24,2.52,3.6,18.3,79.1,1018.62,0,0,0,0,0.031357
2018/04/22 01:09:00.001,n,266,6.84,4.68,7.92,18.3,79.1,1018.62,0,0,0,0,0.035706
2018/04/22 01:10:00.000,n,224,2.88,2.16,3.6,18.3,78.8,1018.62,0,0,0,0,0.025253
2018/04/22 01:11:00.011,n,191,2.88,1.44,4.32,18.3,79,1018.52,0,0,0,0,0.028725
2018/04/22 01:12:00.010,n,222,2.16,1.8,3.24,18.3,78.9,1018.52,0,0,0,0,0.032196
2018/04/22 01:13:00.000,n,267,1.8,1.08,3.24,18.3,79.3,1018.52,0,0,0,0,0.032196
2018/04/22 01:14:00.000,n,234,4.32,3.6,6.12,18.3,79.2,1018.52,0,0,0,0,0.031357
2018/04/22 01:15:00.002,n,215,7.92,7.56,8.28,18.3,79.1,1018.52,0,0,0,0,0.029564
2018/04/22 01:16:00.000,n,245,2.52,1.8,3.6,18.3,79.1,1018.62,0,0,0,0,0.026131
2018/04/22 01:17:00.000,n,278,5.04,3.96,5.76,18.3,79.2,1018.62,0,0,0,0,0.027847
2018/04/22 01:18:00.010,n,264,3.6,2.88,5.04,18.3,79,1018.52,0,0,0,0,0.029564
2018/04/22 01:19:00.007,n,272,8.64,5.04,11.88,18.3,78.8,1018.52,0,0,0,0,0.030479
2018/04/22 01:20:00.005,n,222,2.16,1.44,2.16,18.3,78.8,1018.52,0,0,0,0,0.026131
2018/04/22 01:21:00.003,n,248,2.52,2.16,3.24,18.3,78.8,1018.52,0,0,0,0,0.029564
2018/04/22 01:22:00.000,n,319,2.52,2.16,2.88,18.3,79.1,1018.62,0,0,0,0,0.030479
2018/04/22 01:23:00.000,n,248,0.72,0.36,1.44,18.3,79.1,1018.52,0,0,0,0,0.026131
2018/04/22 01:24:00.000,n,230,4.32,3.96,5.04,18.3,78.9,1018.52,0,0,0,0,0.024376
2018/04/22 01:25:00.000,n,294,6.48,5.04,8.28,18.3,79.1,1018.52,0,0,0,0,0.02697
2018/04/22 01:26:00.005,n,255,2.88,2.52,3.24,18.3,79.1,1018.52,0,0,0,0,0.02697
2018/04/22 01:27:00.002,n,266,3.24,2.16,4.32,18.3,78.9,1018.52,0,0,0,0,0.027847
2018/04/22 01:28:00.000,n,277,1.44,0.36,2.88,18.2,78.8,1018.42,0,0,0,0,0.02697
2018/04/22 01:29:00.013,n,261,2.88,1.08,4.32,18.2,78.9,1018.42,0,0,0,0,0.025253
2018/04/22 01:30:00.011,n,275,8.28,4.68,10.440002,18.2,79.1,1018.42,0,0,0,0,0.029564
2018/04/22 01:31:00.000,n,245,4.68,3.96,5.4,18.2,78.8,1018.42,0,0,0,0,0.02697
2018/04/22 01:32:00.000,n,245,4.32,3.24,5.4,18.2,79.1,1018.42,0,0,0,0,0.024376
2018/04/22 01:33:00.002,n,281,7.2,3.96,9,18.2,79,1018.42,0,0,0,0,0.029564
2018/04/22 01:34:00.000,n,262,5.04,3.24,5.76,18.3,79,1018.42,0,0,0,0,0.023499
2018/04/22 01:35:00.000,n,279,5.04,3.6,6.48,18.2,79.1,1018.42,0,0,0,0,0.029564
2018/04/22 01:36:00.009,n,277,6.12,4.68,7.56,18.2,79,1018.42,0,0,0,0,0.022621
2018/04/22 01:37:00.007,n,191,2.88,2.52,3.24,18.2,78.9,1018.42,0,0,0,0,0.030479
2018/04/22 01:38:00.006,n,265,4.32,3.6,4.68,18.2,79.1,1018.42,0,0,0,0,0.019989
2018/04/22 01:39:00.002,n,259,5.04,3.6,6.12,18.2,79.1,1018.42,0,0,0,0,0.026131
2018/04/22 01:40:00.000,n,241,2.16,1.8,2.88,18.2,79,1018.42,0,0,0,0,0.024376
2018/04/22 01:41:00.000,n,229,1.8,1.08,2.52,18.2,79.3,1018.42,0,0,0,0,0.026131
2018/04/22 01:42:00.000,n,224,2.88,2.16,3.24,18.2,79.2,1018.42,0,0,0,0,0.026131
2018/04/22 01:43:00.000,n,170,0.72,0.72,1.44,18.2,79.4,1018.42,0,0,0,0,0.025253
2018/04/22 01:44:00.005,n,251,1.8,1.08,2.88,18.2,79.3,1018.42,0,0,0,0,0.026131
2018/04/22 01:45:00.002,n,234,3.24,1.8,4.68,18.2,79.5,1018.42,0,0,0,0,0.026131
2018/04/22 01:46:00.000,n,239,5.4,4.32,6.12,18.2,79.5,1018.42,0,0,0,0,0.023499
2018/04/22 01:47:00.013,n,205,5.4,4.68,6.12,18.2,79.3,1018.42,0,0,0,0,0.022621
2018/04/22 01:48:00.011,n,230,3.96,2.88,5.04,18.2,79.4,1018.42,0,0,0,0,0.021782
2018/04/22 01:49:00.000,n,279,4.32,3.6,5.76,18.2,79.5,1018.32,0,0,0,0,0.027847
2018/04/22 01:50:00.000,n,279,5.76,4.68,6.84,18.2,79.3,1018.32,0,0,0,0,0.023499
2018/04/22 01:51:00.001,n,268,3.24,2.52,4.32,18.2,79.3,1018.32,0,0,0,0,0.025253
2018/04/22 01:52:00.000,n,251,2.88,2.52,3.6,18.2,79.3,1018.32,0,0,0,0,0.022621
2018/04/22 01:53:00.000,n,274,4.68,3.96,5.4,18.2,79.3,1018.32,0,0,0,0,0.021782
2018/04/22 01:54:00.008,n,340,1.8,0.72,3.24,18.1,79.3,1018.22,0,0,0,0,0.024376
2018/04/22 01:55:00.006,n,272,3.24,1.8,5.4,18.1,79.1,1018.22,0,0,0,0,0.024376
2018/04/22 01:56:00.003,n,217,3.6,3.6,3.96,18.1,79.1,1018.22,0,0,0,0,0.025253
2018/04/22 01:57:00.001,n,196,3.24,2.52,4.32,18.1,79.2,1018.22,0,0,0,0,0.025253
2018/04/22 01:58:00.000,n,242,5.76,5.4,6.12,18.1,79.1,1018.12,0,0,0,0,0.023499
2018/04/22 01:59:00.000,n,247,5.76,4.68,7.92,18.1,79.4,1018.12,0,0,0,0,0.026131
2018/04/22 02:00:00.000,n,261,3.96,2.88,4.68,18.1,79.3,1018.12,0,0,0,0,0.025253
2018/04/22 02:01:00.005,n,251,2.88,2.16,3.6,18.1,79.3,1018.12,0,0,0,0,0.025253
2018/04/22 02:02:00.003,n,104,1.44,0.72,2.16,18.1,79.4,1018.12,0,0,0,0,0.021782
2018/04/22 02:03:00.001,n,249,3.6,2.88,3.96,18.1,79.2,1018.12,0,0,0,0,0.024376
2018/04/22 02:04:00.000,n,248,1.44,1.08,1.8,18.1,79.5,1018.12,0,0,0,0,0.024376
2018/04/22 02:05:00.013,n,255,4.32,3.6,5.76,18.1,79.5,1018.12,0,0,0,0,0.02697
2018/04/22 02:06:00.010,n,178,1.44,0.36,2.16,18.1,79.6,1018.12,0,0,0,0,0.027847
2018/04/22 02:07:00.000,n,235,1.44,1.08,1.8,18.1,79.8,1018.02,0,0,0,0,0.023499
2018/04/22 02:08:00.000,n,247,2.16,0.72,2.52,18.1,79.9,1018.02,0,0,0,0,0.025253
2018/04/22 02:09:00.002,n,228,1.8,1.44,1.8,18.1,79.7,1018.02,0,0,0,0,0.021782
2018/04/22 02:10:00.000,n,232,3.6,2.88,4.32,18.1,79.8,1018.02,0,0,0,0,0.022621
2018/04/22 02:11:00.000,n,11,1.08,0.72,2.52,18.1,80.1,1018.02,0,0,0,0,0.024376
2018/04/22 02:12:00.010,n,215,5.4,3.96,6.84,18.1,80,1018.02,0,0,0,0,0.021782
2018/04/22 02:13:00.007,n,212,2.16,1.8,3.6,18.1,80.1,1018.02,0,0,0,0,0.023499
2018/04/22 02:14:00.004,n,238,3.96,2.88,5.04,18.1,80,1018.02,0,0,0,0,0.023499
2018/04/22 02:15:00.002,n,203,3.24,3.24,3.6,18.1,80,1018.02,0,0,0,0,0.023499
2018/04/22 02:16:00.000,n,205,3.96,2.88,5.04,18.1,80.1,1018.02,0,0,0,0,0.020905
2018/04/22 02:17:00.000,n,196,1.8,1.44,2.16,18.1,80.2,1018.02,0,0,0,0,0.01915
2018/04/22 02:18:00.000,n,117,0.36,0,1.08,18,80.2,1018.02,0,0,0,0,0.023499
2018/04/22 02:19:00.006,n,241,2.88,2.52,3.96,18,80.1,1018.02,0,0,0,0,0.019989
2018/04/22 02:21:00.009,n,245,1.8,1.44,2.52,18,80.2,1018.02,0,0,0,0,0.032196
2018/04/22 02:22:00.002,n,232,2.16,1.44,2.52,18,80.3,1018.02,0,0,0,0,0.028725
2018/04/22 02:23:00.000,n,249,4.32,3.96,4.68,18,80.2,1018.02,0,0,0,0,0.029564
2018/04/22 02:24:00.012,n,113,0.72,0.36,1.08,18,80.3,1018.02,0,0,0,0,0.029564
2018/04/22 02:25:00.000,n,270,0.72,0.36,1.08,18,80.3,1018.12,0,0,0,0,0.02697
2018/04/22 02:26:00.000,n,274,0.36,0,0.72,18,80.5,1018.12,0,0,0,0,0.030441
2018/04/22 02:27:00.003,n,215,2.16,1.8,2.16,17.9,80.4,1018.12,0,0,0,0,0.027847
2018/04/22 02:28:00.000,n,143,1.44,0.72,2.16,17.9,80.5,1018.12,0,0,0,0,0.02697
2018/04/22 02:29:00.000,n,209,1.44,0.72,2.16,17.9,80.7,1018.12,0,0,0,0,0.030441
2018/04/22 02:30:00.000,n,252,3.96,3.96,4.32,17.9,80.5,1018.12,0,0,0,0,0.028725
2018/04/22 02:31:00.009,n,248,5.04,3.96,5.4,17.9,80.5,1018.12,0,0,0,0,0.029564
2018/04/22 02:32:00.006,n,165,1.8,1.44,2.16,17.9,80.7,1018.12,0,0,0,0,0.033913
2018/04/22 02:33:00.003,n,255,1.8,0.36,3.6,17.9,80.6,1018.12,0,0,0,0,0.029564
2018/04/22 02:34:00.000,n,260,1.8,1.44,2.16,17.9,80.9,1018.12,0,0,0,0,0.030441
2018/04/22 02:35:00.000,n,283,2.16,1.44,2.52,17.9,81,1018.12,0,0,0,0,0.027847
2018/04/22 02:36:00.000,n,258,1.44,1.08,1.8,17.9,80.8,1018.12,0,0,0,0,0.02697
2018/04/22 02:37:00.000,n,268,4.68,3.96,5.76,17.9,80.8,1018.12,0,0,0,0,0.02697
2018/04/22 02:38:00.006,n,266,4.32,3.6,4.32,17.8,80.9,1018.12,0,0,0,0,0.033913
2018/04/22 02:39:00.004,n,240,1.8,0.36,3.24,17.8,80.7,1018.12,0,0,0,0,0.028725
2018/04/22 02:40:00.001,n,246,3.24,2.88,3.6,17.8,80.7,1018.12,0,0,0,0,0.023499
2018/04/22 02:41:00.000,n,312,3.96,2.88,4.68,17.8,81.3,1018.12,0,0,0,0,0.028725
2018/04/22 02:42:00.012,n,211,2.88,2.52,3.24,17.8,81.1,1018.12,0,0,0,0,0.025215
2018/04/22 02:43:00.000,n,159,2.16,0.72,2.88,17.8,80.9,1018.12,0,0,0,0,0.026093
2018/04/22 02:44:00.000,n,243,2.52,1.44,2.88,17.8,80.9,1018.12,0,0,0,0,0.02697
2018/04/22 02:45:00.002,n,275,5.04,3.96,6.12,17.8,81.1,1018.12,0,0,0,0,0.026093
2018/04/22 02:46:00.000,n,246,4.32,2.88,5.76,17.8,80.9,1018.12,0,0,0,0,0.027847
2018/04/22 02:47:00.000,n,215,2.52,2.16,3.24,17.8,81,1018.02,0,0,0,0,0.031357
2018/04/22 02:48:00.006,n,157,6.48,5.4,7.2,17.7,81.1,1018.02,0,0,0,0,0.033073
2018/04/22 02:49:00.003,n,199,3.6,2.88,3.96,17.7,81.1,1018.02,0,0,0,0,0.035706
2018/04/22 02:50:00.000,n,270,6.12,4.32,6.48,17.7,81.2,1018.02,0,0,0,0,0.040932
2018/04/22 02:51:00.013,n,268,3.6,3.24,3.96,17.7,81,1018.02,0,0,0,0,0.03746
2018/04/22 02:52:00.000,n,239,3.96,3.24,4.32,17.7,81,1018.02,0,0,0,0,0.0383
2018/04/22 02:53:00.000,n,256,4.32,3.6,4.68,17.7,81.1,1018.02,0,0,0,0,0.040932
2018/04/22 02:54:00.000,n,38,2.88,1.44,3.96,17.7,81.5,1018.02,0,0,0,0,0.0383
2018/04/22 02:55:00.003,n,268,3.96,3.24,4.68,17.7,81.1,1018.02,0,0,0,0,0.040054
2018/04/22 02:56:00.001,n,244,4.32,3.6,4.68,17.7,81,1018.02,0,0,0,0,0.040054
2018/04/22 02:57:00.000,n,245,3.96,3.6,5.04,17.7,81,1018.02,0,0,0,0,0.0383
2018/04/22 02:58:00.010,n,248,7.56,5.76,10.440002,17.6,81.1,1018.02,0,0,0,0,0.040054
2018/04/22 02:59:00.007,n,220,3.96,3.6,4.32,17.6,81.1,1018.02,0,0,0,0,0.0383
2018/04/22 03:00:00.004,n,238,4.32,3.96,5.4,17.6,81,1018.02,0,0,0,0,0.0383
2018/04/22 03:01:00.003,n,312,2.88,1.8,5.76,17.6,81.3,1018.02,0,0,0,0,0.03746
2018/04/22 03:02:00.000,n,255,6.48,5.76,7.56,17.6,81.2,1018.02,0,0,0,0,0.036583
2018/04/22 03:03:00.000,n,272,6.84,5.04,9,17.6,81.4,1018.02,0,0,0,0,0.032234
2018/04/22 03:04:00.000,n,261,2.52,2.16,3.24,17.6,80.9,1018.02,0,0,0,0,0.033073
2018/04/22 03:05:00.007,n,225,2.16,1.44,2.52,17.6,80.8,1018.02,0,0,0,0,0.032234
2018/04/22 03:06:00.004,n,280,3.24,2.88,3.6,17.6,81,1017.92,0,0,0,0,0.031357
2018/04/22 03:07:00.001,n,258,1.8,1.44,2.16,17.6,81.1,1017.92,0,0,0,0,0.036583
2018/04/22 03:08:00.000,n,254,3.24,2.52,3.6,17.6,80.9,1017.92,0,0,0,0,0.03746
2018/04/22 03:09:00.012,n,320,2.16,0.72,4.68,17.5,80.9,1017.92,0,0,0,0,0.031357
2018/04/22 03:10:00.000,n,265,4.68,3.6,5.76,17.5,80.8,1017.92,0,0,0,0,0.032234
2018/04/22 03:11:00.000,n,273,6.12,6.12,6.84,17.5,80.8,1017.82,0,0,0,0,0.028725
2018/04/22 03:12:00.003,n,265,8.28,6.48,9.36,17.5,81.2,1017.82,0,0,0,0,0.027008
2018/04/22 03:13:00.001,n,255,5.4,1.8,6.84,17.5,81.3,1017.82,0,0,0,0,0.032234
2018/04/22 03:14:00.000,n,259,6.84,6.12,7.92,17.5,81.1,1017.82,0,0,0,0,0.026093
2018/04/22 03:15:00.010,n,252,4.68,3.96,5.04,17.5,81.2,1017.82,0,0,0,0,0.027885
2018/04/22 03:16:00.007,n,235,6.12,2.88,7.56,17.5,81.1,1017.82,0,0,0,0,0.027885
2018/04/22 03:17:00.004,n,240,2.88,2.52,3.24,17.5,81.1,1017.82,0,0,0,0,0.028725
2018/04/22 03:18:00.002,n,253,3.24,2.16,6.12,17.5,81.7,1017.82,0,0,0,0,0.027008
2018/04/22 03:19:00.000,n,278,3.96,3.24,6.12,17.5,81.9,1017.82,0,0,0,0,0.028725
2018/04/22 03:20:00.000,n,160,1.08,0.72,1.44,17.5,81.5,1017.82,0,0,0,0,0.028725
2018/04/22 03:21:00.000,n,242,1.8,1.08,3.24,17.5,81.4,1017.82,0,0,0,0,0.030479
2018/04/22 03:22:00.006,n,233,3.24,2.88,3.96,17.5,81.6,1017.82,0,0,0,0,0.033073
2018/04/22 03:23:00.003,n,252,3.6,2.88,3.96,17.5,82.1,1017.82,0,0,0,0,0.025253
2018/04/22 03:24:00.000,n,297,3.96,2.52,5.04,17.5,82.1,1017.82,0,0,0,0,0.034828
2018/04/22 03:25:00.000,n,285,2.88,1.8,3.24,17.5,81.8,1017.82,0,0,0,0,0.033951
2018/04/22 03:26:00.009,n,247,5.4,4.68,5.76,17.5,81.7,1017.82,0,0,0,0,0.029602
2018/04/22 03:27:00.006,n,267,4.68,3.96,5.4,17.5,82,1017.82,0,0,0,0,0.031357
2018/04/22 03:28:00.000,n,262,6.48,3.96,8.64,17.5,82,1017.82,0,0,0,0,0.029602
2018/04/22 03:29:00.000,n,249,7.56,7.2,8.64,17.5,82.3,1017.82,0,0,0,0,0.028725
2018/04/22 03:30:00.000,n,236,4.32,3.6,4.68,17.5,82.1,1017.82,0,0,0,0,0.033073
2018/04/22 03:31:00.000,n,237,4.68,4.32,5.04,17.5,81.9,1017.82,0,0,0,0,0.027885
2018/04/22 03:32:00.007,n,255,4.32,3.24,5.4,17.5,82.1,1017.82,0,0,0,0,0.027008
2018/04/22 03:33:00.004,n,251,5.76,5.4,6.48,17.5,82.4,1017.82,0,0,0,0,0.027885
2018/04/22 03:34:00.001,n,257,3.24,2.52,3.6,17.5,82.1,1017.82,0,0,0,0,0.031357
2018/04/22 03:35:00.013,n,251,5.76,4.68,6.84,17.4,81.9,1017.82,0,0,0,0,0.028725
2018/04/22 03:36:00.010,n,232,3.24,2.88,3.24,17.4,81.9,1017.82,0,0,0,0,0.027885
2018/04/22 03:37:00.000,n,258,5.04,4.68,5.4,17.4,81.9,1017.82,0,0,0,0,0.029602
2018/04/22 03:38:00.001,n,259,6.12,5.04,6.48,17.3,81.9,1017.82,0,0,0,0,0.035706
2018/04/22 03:40:00.005,n,251,5.4,4.68,5.76,17.3,82,1017.82,0,0,0,0,0.024376
2018/04/22 03:41:00.000,n,249,4.32,4.32,4.68,17.3,82,1017.82,0,0,0,0,0.02697
2018/04/22 03:42:00.000,n,254,3.6,2.88,3.96,17.3,82,1017.82,0,0,0,0,0.026131
2018/04/22 03:43:00.009,n,253,5.76,3.96,6.48,17.3,82.3,1017.82,0,0,0,0,0.034828
2018/04/22 03:44:00.006,n,239,5.76,4.68,8.64,17.3,82.2,1017.82,0,0,0,0,0.035706
2018/04/22 03:45:00.003,n,240,5.4,4.68,6.12,17.3,82.1,1017.82,0,0,0,0,0.031319
2018/04/22 03:46:00.001,n,253,6.12,5.76,6.48,17.3,82.1,1017.82,0,0,0,0,0.026131
2018/04/22 03:47:00.000,n,237,4.68,3.6,5.76,17.3,82.1,1017.82,0,0,0,0,0.025253
2018/04/22 03:48:00.000,n,239,5.04,4.32,5.76,17.3,82.1,1017.82,0,0,0,0,0.025253
2018/04/22 03:49:00.000,n,245,3.96,3.96,4.32,17.3,82.3,1017.82,0,0,0,0,0.029602
2018/04/22 03:50:00.005,n,245,3.6,2.16,5.04,17.3,82.7,1017.82,0,0,0,0,0.02697
2018/04/22 03:51:00.002,n,259,1.08,0.36,1.8,17.3,82.3,1017.82,0,0,0,0,0.028725
2018/04/22 03:52:00.000,n,258,1.8,1.44,1.8,17.3,82.2,1017.82,0,0,0,0,0.025253
2018/04/22 03:53:00.012,n,301,3.96,3.24,5.04,17.3,82.5,1017.82,0,0,0,0,0.026131
2018/04/22 03:54:00.009,n,172,1.8,1.44,2.16,17.3,82.8,1017.82,0,0,0,0,0.024376
2018/04/22 03:55:00.000,n,253,3.24,2.88,3.96,17.3,82.7,1017.82,0,0,0,0,0.023499
2018/04/22 03:56:00.003,n,259,4.68,3.6,5.4,17.3,82.5,1017.82,0,0,0,0,0.027847
2018/04/22 03:57:00.000,n,196,2.52,2.16,2.88,17.3,82.4,1017.82,0,0,0,0,0.023499
2018/04/22 03:58:00.000,n,218,5.4,4.32,6.48,17.3,82.4,1017.82,0,0,0,0,0.024376
2018/04/22 03:59:00.000,n,197,2.16,1.44,3.24,17.3,82.4,1017.82,0,0,0,0,0.02697
2018/04/22 04:00:00.007,n,244,3.24,3.24,3.6,17.3,82.3,1017.82,0,0,0,0,0.022621
2018/04/22 04:01:00.005,n,236,3.6,2.88,3.96,17.3,82.3,1017.82,0,0,0,0,0.023499
2018/04/22 04:02:00.001,n,229,4.68,4.32,5.76,17.3,82.3,1017.82,0,0,0,0,0.025253
2018/04/22 04:03:00.015,n,254,5.4,1.44,6.48,17.3,82.6,1017.82,0,0,0,0,0.023499
2018/04/22 04:04:00.000,n,221,3.24,2.88,3.6,17.3,82.5,1017.82,0,0,0,0,0.024376
2018/04/22 04:05:00.000,n,242,1.8,0.36,3.6,17.3,82.5,1017.82,0,0,0,0,0.023499
2018/04/22 04:06:00.000,n,219,3.6,3.24,4.32,17.3,82.5,1017.82,0,0,0,0,0.023499
2018/04/22 04:07:00.003,n,199,2.88,2.52,3.24,17.3,82.4,1017.82,0,0,0,0,0.033073
2018/04/22 04:08:00.001,n,148,1.44,1.08,2.52,17.3,82.5,1017.82,0,0,0,0,0.028725
2018/04/22 04:09:00.000,n,219,2.16,1.08,3.24,17.3,82.4,1017.82,0,0,0,0,0.028725
2018/04/22 04:10:00.011,n,274,3.6,2.88,4.68,17.3,82.3,1017.82,0,0,0,0,0.032196
2018/04/22 04:11:00.008,n,267,4.32,3.6,5.04,17.3,82.3,1017.82,0,0,0,0,0.032196
2018/04/22 04:12:00.005,n,186,3.24,2.52,3.96,17.3,82.3,1017.82,0,0,0,0,0.030479
2018/04/22 04:13:00.002,n,130,3.24,2.16,3.6,17.3,82.3,1017.82,0,0,0,0,0.031357
2018/04/22 04:14:00.000,n,192,1.08,0.72,1.08,17.3,82.4,1017.82,0,0,0,0,0.035706
2018/04/22 04:15:00.000,n,191,2.16,1.8,2.16,17.3,82.4,1017.82,0,0,0,0,0.029602
2018/04/22 04:16:00.000,n,202,3.6,3.6,4.32,17.3,82.4,1017.82,0,0,0,0,0.029602
2018/04/22 04:17:00.005,n,148,2.52,2.52,2.88,17.3,82.5,1017.82,0,0,0,0,0.027847
2018/04/22 04:18:00.003,n,192,2.16,1.44,2.88,17.3,82.6,1017.82,0,0,0,0,0.027847
2018/04/22 04:19:00.000,n,214,2.52,2.16,2.88,17.3,82.6,1017.82,0,0,0,0,0.028725
2018/04/22 04:20:00.013,n,189,1.8,1.44,2.16,17.3,82.7,1017.82,0,0,0,0,0.033951
2018/04/22 04:21:00.011,n,231,0.72,0.36,0.72,17.3,82.6,1017.82,0,0,0,0,0.028725
2018/04/22 04:22:00.000,n,248,3.24,2.88,3.6,17.3,82.6,1017.82,0,0,0,0,0.029602
2018/04/22 04:23:00.000,n,265,5.4,4.32,6.48,17.3,82.6,1017.82,0,0,0,0,0.030479
2018/04/22 04:24:00.003,n,176,1.08,0.72,1.44,17.3,82.6,1017.82,0,0,0,0,0.028725
2018/04/22 04:25:00.000,n,228,2.88,2.52,3.24,17.2,82.6,1017.82,0,0,0,0,0.029602
2018/04/22 04:26:00.000,n,261,3.96,2.52,4.32,17.2,82.7,1017.82,0,0,0,0,0.029602
2018/04/22 04:27:00.010,n,228,1.08,0.72,1.8,17.2,82.8,1017.82,0,0,0,0,0.028725
2018/04/22 04:28:00.007,n,190,2.52,2.16,2.88,17.2,82.8,1017.92,0,0,0,0,0.028725
2018/04/22 04:29:00.004,n,234,2.16,1.8,2.52,17.2,83,1017.92,0,0,0,0,0.027847
2018/04/22 04:30:00.002,n,184,2.52,2.16,2.88,17.2,83,1017.92,0,0,0,0,0.023499
2018/04/22 04:31:00.000,n,259,3.24,1.8,3.96,17.2,83,1017.92,0,0,0,0,0.026131
2018/04/22 04:32:00.000,n,223,3.24,3.24,3.6,17.2,83,1017.92,0,0,0,0,0.02697
2018/04/22 04:33:00.000,n,240,4.68,3.6,5.04,17.2,83.1,1017.92,0,0,0,0,0.029602
2018/04/22 04:35:00.000,n,248,6.84,6.12,7.92,17.3,83.2,1017.92,0,0,0,0,0.024414
2018/04/22 04:36:00.010,n,257,5.04,4.68,5.76,17.3,83.2,1017.92,0,0,0,0,0.020065
2018/04/22 04:37:00.008,n,270,6.12,5.4,6.48,17.3,82.9,1017.82,0,0,0,0,0.025253
2018/04/22 04:38:00.005,n,264,7.2,6.12,7.56,17.3,82.9,1017.82,0,0,0,0,0.022659
2018/04/22 04:39:00.002,n,234,2.88,2.16,3.6,17.2,82.9,1017.92,0,0,0,0,0.022659
2018/04/22 04:40:00.000,n,266,2.88,2.88,2.88,17.2,82.9,1017.92,0,0,0,0,0.023537
2018/04/22 04:41:00.000,n,282,4.32,3.24,5.04,17.2,82.9,1017.82,0,0,0,0,0.026131
2018/04/22 04:42:00.000,n,283,3.6,2.52,4.32,17.2,82.9,1017.82,0,0,0,0,0.026131
2018/04/22 04:43:00.000,n,228,1.44,1.08,2.16,17.2,82.9,1017.82,0,0,0,0,0.027008
2018/04/22 04:44:00.005,n,257,4.68,3.96,5.76,17.2,82.9,1017.82,0,0,0,0,0.028763
2018/04/22 04:45:00.002,n,236,3.24,2.52,3.96,17.2,83,1017.92,0,0,0,0,0.027008
2018/04/22 04:46:00.000,n,230,6.12,5.76,6.84,17.2,83,1017.92,0,0,0,0,0.026131
2018/04/22 04:47:00.012,n,312,4.68,1.8,6.84,17.2,83.3,1017.82,0,0,0,0,0.027008
2018/04/22 04:48:00.009,n,233,4.32,3.24,5.04,17.2,83.2,1017.92,0,0,0,0,0.026131
2018/04/22 04:49:00.000,n,225,3.24,1.08,6.12,17.2,83.2,1017.92,0,0,0,0,0.023537
2018/04/22 04:50:00.000,n,235,4.32,3.96,4.68,17.2,83.2,1017.82,0,0,0,0,0.030479
2018/04/22 04:51:00.001,n,228,3.24,2.88,3.6,17.2,83.3,1017.82,0,0,0,0,0.027885
2018/04/22 04:52:00.000,n,280,3.24,2.52,3.96,17.2,83,1017.82,0,0,0,0,0.025253
2018/04/22 04:53:00.000,n,243,4.68,3.24,5.76,17.2,82.9,1017.82,0,0,0,0,0.024414
2018/04/22 04:54:00.008,n,258,3.96,2.52,4.68,17.1,82.9,1017.92,0,0,0,0,0.020065
2018/04/22 04:55:00.005,n,292,1.8,1.08,2.88,17.1,83,1017.92,0,0,0,0,0.020065
2018/04/22 04:56:00.002,n,282,3.24,2.16,3.96,17.1,83.7,1017.92,0,0,0,0,0.025253
2018/04/22 04:57:00.000,n,267,2.88,2.52,3.6,17.2,83.2,1017.92,0,0,0,0,0.029602
2018/04/22 04:58:00.000,n,216,3.24,2.52,3.96,17.2,83.1,1017.92,0,0,0,0,0.028763
2018/04/22 04:59:00.000,n,216,2.52,0.72,3.24,17.2,83.1,1017.92,0,0,0,0,0.025253